CDT,Max TemperatureF,Mean TemperatureF,Min TemperatureF,Max Dew PointF,MeanDew PointF,Min DewpointF,Max Humidity, Mean Humidity, Min Humidity, Max Sea Level PressureIn, Mean Sea Level PressureIn, Min Sea Level PressureIn, Max VisibilityMiles, Mean VisibilityMiles, Min VisibilityMiles, Max Wind SpeedMPH, Mean Wind SpeedMPH, Max Gust SpeedMPH,PrecipitationIn, CloudCover, Events, WindDirDegrees
2012-10-1,75,62,50,46,41,36,76,49,29,29.91,29.88,29.83,10,9,2,12,4,,0.00,0,,14
2012-10-2,75,60,46,48,45,39,76,59,34,29.94,29.90,29.85,10,10,10,9,5,,0.00,0,,336
2012-10-3,78,61,44,48,42,32,82,53,19,29.97,29.92,29.87,10,10,4,14,3,21,0.00,0,,182
2012-10-4,60,53,46,46,37,28,82,55,34,30.26,30.12,29.95,10,10,7,22,10,26,0.00,1,Rain,291
2012-10-5,48,40,33,36,26,18,81,56,30,30.29,30.24,30.19,10,10,7,16,4,21,0.01,1,Rain,291
2012-10-6,46,35,24,25,22,18,74,55,37,30.30,30.27,30.22,10,10,10,18,6,24,0.00,4,,312
2012-10-7,55,40,24,25,17,7,80,46,15,30.28,30.19,30.08,10,10,10,14,6,17,0.00,0,,255
2012-10-8,66,50,35,32,27,21,70,42,21,30.08,29.96,29.86,10,10,10,24,12,31,0.00,0,,197
2012-10-9,60,50,37,39,35,30,87,60,39,30.08,29.92,29.84,10,10,4,17,12,22,0.02,2,Rain,258
2012-10-10,57,42,28,30,21,7,81,49,13,30.23,30.15,30.08,10,10,10,16,7,24,0.00,0,,253
2012-10-11,71,58,44,37,28,21,57,40,23,30.33,30.12,30.05,10,10,10,20,11,26,0.00,2,,250
2012-10-12,60,48,37,45,19,0,87,37,9,30.42,30.30,30.10,10,10,2,15,9,22,0.24,3,Rain,94
2012-10-13,71,61,51,63,56,45,94,83,73,30.05,29.84,29.64,10,8,1,17,10,26,0.97,7,Rain,174
2012-10-14,64,54,44,61,49,37,88,80,59,29.94,29.72,29.51,10,9,2,25,11,38,0.90,6,Rain,288
2012-10-15,68,52,37,43,38,34,87,59,30,30.01,29.94,29.85,10,7,0,8,5,,0.00,0,,232
2012-10-16,78,64,51,50,46,43,76,56,30,29.85,29.58,29.46,10,6,0,21,9,26,0.00,0,,189
2012-10-17,64,56,46,54,46,34,88,66,50,29.50,29.44,29.38,10,10,7,26,11,36,0.04,4,Rain,240
2012-10-18,48,45,42,43,35,27,87,70,43,29.48,29.42,29.39,10,8,3,34,15,40,0.23,8,Rain,256
2012-10-19,48,45,42,45,40,37,87,83,76,29.78,29.63,29.45,10,8,2,18,14,25,0.02,8,Rain,292
2012-10-20,59,50,42,45,41,39,87,76,59,29.88,29.82,29.77,10,6,0,9,4,,0.00,7,,160
2012-10-21,78,60,42,61,51,39,87,72,47,29.87,29.83,29.79,10,5,0,14,8,21,0.00,2,,132
2012-10-22,71,68,64,66,62,59,88,84,78,29.87,29.81,29.78,10,8,2,12,6,,0.78,5,Rain,113
2012-10-23,73,70,66,64,62,61,88,81,69,29.82,29.78,29.72,10,9,5,18,8,24,0.00,5,,166
2012-10-24,78,72,66,66,64,61,88,75,61,29.82,29.76,29.68,10,10,10,21,11,28,0.00,5,,183
2012-10-25,75,56,37,63,42,27,88,74,61,30.27,29.89,29.60,10,9,2,25,18,36,0.09,7,Rain,298
2012-10-26,46,37,28,28,25,23,81,62,43,30.43,30.38,30.27,10,10,10,20,10,25,0.00,3,,322
2012-10-27,44,37,30,28,23,21,80,59,39,30.40,30.35,30.29,10,10,3,7,2,,0.00,4,,7
2012-10-28,48,38,28,25,19,12,80,51,24,30.36,30.32,30.28,10,10,2,5,1,,0.00,1,,95
2012-10-29,48,40,33,30,25,19,75,58,40,30.33,30.28,30.18,10,10,10,12,2,16,0.00,2,,129
2012-10-30,53,40,26,30,25,21,86,57,30,30.18,30.08,29.99,10,10,10,13,5,16,0.00,1,,358
2012-10-31,51,40,28,27,21,12,86,54,22,30.05,30.01,29.98,10,10,10,13,6,16,0.00,0,,310